Volver al catálogo

SL-12 R/B(2)

ActivoGEO
NORAD 26480·ROCKET BODY·🇷🇺 Russia

Lanzado Aug 28, 2000 desde Baikonur Cosmodrome

Loading…

TLE

ActualizadoSource: Space-Track

Época: Sep 14, 2026, 19:23 UTC

1 26480U 00049D   26257.80786108 -.00000060  00000-0  00000-0 0  9990
2 26480  14.6713   9.5257 0013758  27.4008 343.5881  0.98192196 47274

Sigue SL-12 R/B(2) en tiempo real con AllMySat

Download on the App Store